TimeEST,TemperatureF,Dew PointF,Humidity,Sea Level PressureIn,VisibilityMPH,Wind Direction,Wind SpeedMPH,Gust SpeedMPH,PrecipitationIn,Events,Conditions,WindDirDegrees,DateUTC
12:15 AM,54.1,54.0,99,30.38,0.5,ESE,3.5,-,N/A,Fog,Fog,110,2013-11-22 05:15:00
12:35 AM,54.1,54.0,99,30.38,0.5,Calm,Calm,-,N/A,Fog,Fog,0,2013-11-22 05:35:00
12:55 AM,54.1,54.0,99,30.38,0.2,Calm,Calm,-,N/A,Fog,Fog,0,2013-11-22 05:55:00
1:15 AM,54.1,54.0,99,30.38,0.2,Calm,Calm,-,N/A,Fog,Fog,0,2013-11-22 06:15:00
1:35 AM,54.0,53.8,99,30.38,0.2,Calm,Calm,-,N/A,Fog,Fog,0,2013-11-22 06:35:00
1:55 AM,54.1,54.0,99,30.38,0.2,Calm,Calm,-,N/A,Fog,Fog,0,2013-11-22 06:55:00
2:15 AM,53.8,53.6,99,30.38,0.2,Calm,Calm,-,N/A,Fog,Fog,0,2013-11-22 07:15:00
2:35 AM,53.6,53.2,99,30.37,0.2,NNE,3.5,-,N/A,Fog,Fog,20,2013-11-22 07:35:00
2:55 AM,53.6,53.2,99,30.37,0.2,NNE,3.5,-,N/A,Fog,Fog,20,2013-11-22 07:55:00
3:15 AM,53.4,53.2,99,30.37,0.2,Calm,Calm,-,N/A,Fog,Fog,0,2013-11-22 08:15:00
3:35 AM,53.2,53.1,99,30.37,0.2,ENE,5.8,-,N/A,Fog,Fog,60,2013-11-22 08:35:00
3:55 AM,53.4,53.1,99,30.36,0.5,Calm,Calm,-,N/A,Fog,Fog,0,2013-11-22 08:55:00
4:15 AM,53.2,53.1,99,30.36,0.2,Calm,Calm,-,N/A,Fog,Fog,0,2013-11-22 09:15:00
4:35 AM,53.2,53.1,99,30.36,0.2,Calm,Calm,-,N/A,Fog,Fog,0,2013-11-22 09:35:00
4:55 AM,53.2,53.1,99,30.36,0.2,Calm,Calm,-,N/A,Fog,Fog,0,2013-11-22 09:55:00
5:15 AM,53.1,53.1,100,30.35,0.5,Calm,Calm,-,N/A,Fog,Fog,0,2013-11-22 10:15:00
5:35 AM,52.9,52.9,100,30.35,0.5,Calm,Calm,-,N/A,Fog,Fog,0,2013-11-22 10:35:00
5:55 AM,52.9,52.9,100,30.35,0.2,Calm,Calm,-,N/A,Fog,Fog,0,2013-11-22 10:55:00
6:56 AM,53.6,53.6,100,30.35,0.2,Calm,Calm,-,N/A,,Overcast,0,2013-11-22 11:56:00
7:56 AM,53.6,53.6,100,30.33,2.0,South,3.5,-,N/A,,Mostly Cloudy,170,2013-11-22 12:56:00
8:25 AM,55.4,55.4,100,30.32,5.0,SE,4.6,-,N/A,,Clear,140,2013-11-22 13:25:00
8:56 AM,57.2,55.4,94,30.33,7.0,Calm,Calm,-,N/A,,Clear,0,2013-11-22 13:56:00
9:56 AM,60.8,59.0,94,30.31,-9999.0,SSE,5.8,-,N/A,,Clear,160,2013-11-22 14:56:00
10:56 AM,68.0,60.8,78,30.30,-9999.0,South,5.8,-,N/A,,Clear,190,2013-11-22 15:56:00
11:56 AM,71.6,57.2,60,30.27,10.0,SSW,9.2,-,N/A,,Clear,210,2013-11-22 16:56:00
12:56 PM,73.4,57.2,57,30.23,10.0,SW,11.5,17.3,N/A,,Scattered Clouds,220,2013-11-22 17:56:00
1:56 PM,73.4,57.2,57,30.21,10.0,SW,11.5,-,N/A,,Scattered Clouds,230,2013-11-22 18:56:00
2:59 PM,73.4,57.2,57,30.20,7.0,SSW,8.1,-,N/A,,Scattered Clouds,210,2013-11-22 19:59:00
3:56 PM,68.0,64.4,88,30.18,7.0,SSE,3.5,-,N/A,,Scattered Clouds,160,2013-11-22 20:56:00
4:56 PM,64.4,62.6,94,30.16,7.0,South,3.5,-,N/A,,Clear,170,2013-11-22 21:56:00
5:56 PM,62.6,62.6,100,30.17,10.0,Calm,Calm,-,N/A,,Scattered Clouds,0,2013-11-22 22:56:00
6:56 PM,60.8,60.8,100,30.14,10.0,SSW,3.5,-,N/A,,Clear,210,2013-11-22 23:56:00
7:56 PM,62.6,60.8,94,30.14,10.0,SW,6.9,-,N/A,,Clear,220,2013-11-23 00:56:00
8:15 PM,64.2,61.7,91,30.14,10.0,SW,6.9,-,N/A,,Clear,220,2013-11-23 01:15:00
8:35 PM,64.4,61.7,91,30.13,10.0,SW,8.1,-,N/A,,Clear,220,2013-11-23 01:35:00
8:55 PM,64.4,61.7,91,30.13,10.0,SSW,6.9,-,N/A,,Clear,210,2013-11-23 01:55:00
8:56 PM,64.4,60.8,88,30.13,10.0,SW,6.9,-,N/A,,Clear,220,2013-11-23 01:56:00
9:15 PM,64.0,61.3,91,30.13,10.0,SSW,6.9,-,N/A,,Clear,210,2013-11-23 02:15:00
9:35 PM,64.0,61.3,91,30.12,10.0,SSW,5.8,-,N/A,,Clear,210,2013-11-23 02:35:00
9:55 PM,64.0,61.5,91,30.12,10.0,SW,8.1,-,N/A,,Clear,220,2013-11-23 02:55:00
10:15 PM,64.4,61.7,91,30.12,10.0,SW,8.1,-,N/A,,Clear,220,2013-11-23 03:15:00
10:35 PM,64.4,61.7,91,30.12,10.0,SW,8.1,-,N/A,,Clear,220,2013-11-23 03:35:00
10:55 PM,64.4,61.7,91,30.12,10.0,SW,5.8,-,N/A,,Clear,220,2013-11-23 03:55:00
11:15 PM,64.4,61.9,92,30.12,10.0,SW,6.9,-,N/A,,Scattered Clouds,220,2013-11-23 04:15:00
11:35 PM,64.2,62.1,93,30.11,10.0,SW,5.8,-,N/A,Rain,Light Rain,230,2013-11-23 04:35:00
11:55 PM,63.9,62.1,94,30.11,10.0,SSW,5.8,-,N/A,Rain,Light Rain,210,2013-11-23 04:55:00